| time (UTC) | temp C | wind direction | speed KPH | gust KPH | rain 1hr cm | rain 24hr cm | rain mn cm | humidity % | barometer mb |
| 20260509190431 | 13 | 129 | 1.6 | 9.7 | 0.00 | 0.00 | 0.00 | 72 | 1012.6 |
| 20260509185911 | 13 | 230 | 9.7 | 14.5 | 0.00 | 0.00 | 0.00 | 72 | 1012.6 |
| 20260509184431 | 14 | 300 | 0.0 | 12.9 | 0.00 | 0.00 | 0.00 | 73 | 1012.4 |
| 20260509183431 | 14 | 61 | 4.8 | 9.7 | 0.00 | 0.00 | 0.00 | 74 | 1012.3 |
| 20260509182431 | 14 | 287 | 1.6 | 6.4 | 0.00 | 0.03 | 0.00 | 74 | 1012.4 |
| 20260509181431 | 15 | 135 | 3.2 | 11.3 | 0.00 | 0.10 | 0.00 | 72 | 1012.2 |
| 20260509180911 | 15 | 321 | 0.0 | 9.7 | 0.00 | 0.15 | 0.00 | 72 | 1012.2 |
| 20260509175918 | 15 | 267 | 1.6 | 12.9 | 0.00 | 0.15 | 0.00 | 72 | 1012.3 |
| 20260509174431 | 15 | 317 | 3.2 | 9.7 | 0.00 | 0.15 | 0.00 | 73 | 1012.2 |
| 20260509173430 | 15 | 134 | 4.8 | 9.7 | 0.00 | 0.15 | 0.00 | 72 | 1012.1 |
| 20260509172431 | 15 | 138 | 4.8 | 14.5 | 0.00 | 0.15 | 0.00 | 75 | 1012.1 |
| 20260509171432 | 15 | 83 | 3.2 | 17.7 | 0.00 | 0.15 | 0.00 | 73 | 1012.2 |
| 20260509170431 | 16 | 276 | 3.2 | 12.9 | 0.00 | 0.15 | 0.00 | 73 | 1012.0 |
| 20260509165431 | 16 | 132 | 3.2 | 9.7 | 0.00 | 0.15 | 0.00 | 73 | 1012.0 |
| 20260509164431 | 15 | 50 | 6.4 | 11.3 | 0.00 | 0.15 | 0.00 | 73 | 1011.9 |
| 20260509163431 | 16 | 262 | 1.6 | 9.7 | 0.00 | 0.15 | 0.00 | 76 | 1012.1 |
| 20260509162910 | 16 | 172 | 8.0 | 11.3 | 0.00 | 0.15 | 0.00 | 70 | 1012.1 |
| 20260509161916 | 15 | 114 | 4.8 | 14.5 | 0.00 | 0.15 | 0.00 | 78 | 1012.1 |
| 20260509160431 | 15 | 87 | 1.6 | 12.9 | 0.00 | 0.15 | 0.00 | 76 | 1012.0 |
| 20260509155917 | 17 | 168 | 3.2 | 16.1 | 0.00 | 0.15 | 0.00 | 69 | 1011.8 |
| 20260509153431 | 16 | 193 | 4.8 | 12.9 | 0.00 | 0.15 | 0.00 | 68 | 1011.6 |
| 20260509152431 | 16 | 108 | 3.2 | 17.7 | 0.00 | 0.15 | 0.00 | 69 | 1011.7 |
| 20260509151431 | 16 | 297 | 0.0 | 11.3 | 0.00 | 0.15 | 0.00 | 67 | 1011.8 |
| 20260509150918 | 17 | 241 | 9.7 | 16.1 | 0.00 | 0.15 | 0.00 | 63 | 1011.9 |
| 20260509145431 | 17 | 100 | 1.6 | 14.5 | 0.00 | 0.15 | 0.00 | 66 | 1011.8 |
| 20260509144906 | 16 | 51 | 3.2 | 27.4 | 0.00 | 0.15 | 0.00 | 67 | 1011.9 |
| 20260509143431 | 17 | 62 | 12.9 | 20.9 | 0.00 | 0.15 | 0.00 | 63 | 1011.7 |
| 20260509142431 | 16 | 89 | 4.8 | 20.9 | 0.00 | 0.15 | 0.00 | 69 | 1011.9 |
| 20260509141431 | 16 | 119 | 6.4 | 16.1 | 0.00 | 0.15 | 0.00 | 71 | 1011.9 |
| 20260509140431 | 16 | 154 | 1.6 | 12.9 | 0.00 | 0.15 | 0.00 | 68 | 1011.8 |
| 20260509135430 | 17 | 339 | 6.4 | 20.9 | 0.00 | 0.15 | 0.00 | 63 | 1011.5 |
| 20260509134431 | 17 | 151 | 1.6 | 16.1 | 0.00 | 0.15 | 0.00 | 62 | 1011.5 |
| 20260509133432 | 17 | 238 | 1.6 | 9.7 | 0.00 | 0.15 | 0.00 | 63 | 1011.5 |
| 20260509132433 | 16 | 18 | 3.2 | 17.7 | 0.00 | 0.15 | 0.00 | 69 | 1011.5 |
| 20260509131433 | 16 | 209 | 6.4 | 14.5 | 0.00 | 0.15 | 0.00 | 71 | 1011.6 |
| 20260509130432 | 16 | 90 | 3.2 | 14.5 | 0.00 | 0.15 | 0.00 | 70 | 1011.8 |
| 20260509125431 | 16 | 115 | 11.3 | 12.9 | 0.00 | 0.15 | 0.00 | 72 | 1011.7 |
| 20260509124430 | 16 | 325 | 6.4 | 16.1 | 0.00 | 0.15 | 0.00 | 71 | 1011.5 |
| 20260509123431 | 17 | 173 | 1.6 | 14.5 | 0.00 | 0.15 | 0.00 | 65 | 1011.5 |
| 20260509122432 | 16 | 30 | 3.2 | 11.3 | 0.00 | 0.15 | 0.00 | 66 | 1011.4 |
| 20260509121431 | 16 | 230 | 6.4 | 12.9 | 0.00 | 0.15 | 0.00 | 69 | 1011.5 |
| 20260509120431 | 17 | 95 | 3.2 | 20.9 | 0.00 | 0.15 | 0.00 | 66 | 1011.4 |
| 20260509115432 | 17 | 226 | 9.7 | 17.7 | 0.00 | 0.15 | 0.00 | 65 | 1011.1 |
| 20260509114431 | 16 | 128 | 9.7 | 20.9 | 0.00 | 0.15 | 0.00 | 70 | 1011.3 |
| 20260509113913 | 16 | 179 | 4.8 | 22.5 | 0.00 | 0.15 | 0.00 | 72 | 1011.2 |
| 20260509112430 | 16 | 218 | 6.4 | 16.1 | 0.00 | 0.15 | 0.00 | 71 | 1011.4 |
| 20260509112352 | 16 | 226 | 3.2 | 16.1 | 0.00 | 0.15 | 0.00 | 69 | 1011.3 |
| 20260509110444 | 16 | 277 | 4.8 | 17.7 | 0.00 | 0.15 | 0.00 | 71 | 1011.3 |
| 20260509105431 | 16 | 205 | 6.4 | 22.5 | 0.00 | 0.15 | 0.00 | 69 | 1011.3 |
| 20260509104432 | 16 | 158 | 12.9 | 17.7 | 0.00 | 0.15 | 0.00 | 71 | 1011.3 |
| 20260509103912 | 16 | 121 | 6.4 | 17.7 | 0.00 | 0.15 | 0.00 | 70 | 1011.1 |
| 20260509102431 | 16 | 142 | 4.8 | 16.1 | 0.00 | 0.15 | 0.00 | 74 | 1011.0 |
| 20260509101430 | 16 | 297 | 4.8 | 16.1 | 0.00 | 0.15 | 0.00 | 72 | 1011.0 |
| 20260509100422 | 16 | 155 | 8.0 | 14.5 | 0.00 | 0.15 | 0.00 | 67 | 1011.1 |
| 20260509095420 | 16 | 186 | 3.2 | 14.5 | 0.00 | 0.15 | 0.00 | 69 | 1011.1 |
| 20260509094420 | 16 | 165 | 6.4 | 14.5 | 0.00 | 0.15 | 0.00 | 68 | 1011.2 |
| 20260509093422 | 16 | 144 | 8.0 | 12.9 | 0.00 | 0.15 | 0.00 | 67 | 1011.1 |
| 20260509092419 | 16 | 130 | 9.7 | 14.5 | 0.00 | 0.15 | 0.00 | 67 | 1010.9 |
| 20260509091429 | 15 | 116 | 9.7 | 16.1 | 0.00 | 0.15 | 0.00 | 70 | 1010.7 |
| 20260509090430 | 16 | 91 | 3.2 | 12.9 | 0.00 | 0.15 | 0.00 | 69 | 1010.6 |
| 20260509085421 | 16 | 158 | 4.8 | 9.7 | 0.00 | 0.15 | 0.00 | 69 | 1010.5 |
| 20260509084420 | 15 | 133 | 3.2 | 6.4 | 0.00 | 0.20 | 0.00 | 73 | 1010.4 |
| 20260509083421 | 15 | 353 | 1.6 | 3.2 | 0.00 | 0.23 | 0.00 | 75 | 1010.4 |
| 20260509082420 | 15 | 26 | 0.0 | 3.2 | 0.00 | 0.30 | 0.00 | 75 | 1010.4 |
| 20260509081421 | 13 | 264 | 0.0 | 4.8 | 0.00 | 0.38 | 0.00 | 80 | 1010.3 |
| 20260509080422 | 13 | 99 | 1.6 | 6.4 | 0.00 | 0.53 | 0.00 | 78 | 1010.2 |
| 20260509075420 | 13 | 15 | 0.0 | 4.8 | 0.00 | 0.53 | 0.00 | 79 | 1010.2 |
| 20260509074902 | 12 | 51 | 1.6 | 6.4 | 0.00 | 0.53 | 0.00 | 82 | 1010.0 |
| 20260509073420 | 12 | 340 | 3.2 | 6.4 | 0.00 | 0.53 | 0.00 | 83 | 1010.2 |
| 20260509072420 | 11 | 342 | 6.4 | 9.7 | 0.00 | 0.53 | 0.00 | 84 | 1010.0 |
| 20260509071422 | 11 | 329 | 3.2 | 4.8 | 0.00 | 0.53 | 0.00 | 85 | 1009.7 |
| 20260509070420 | 11 | 340 | 1.6 | 6.4 | 0.00 | 0.53 | 0.00 | 84 | 1009.7 |
| 20260509065420 | 11 | 336 | 1.6 | 4.8 | 0.00 | 0.53 | 0.00 | 84 | 1009.7 |
| 20260509064421 | 11 | 326 | 4.8 | 11.3 | 0.00 | 0.53 | 0.00 | 84 | 1009.4 |
| 20260509063422 | 11 | 330 | 4.8 | 11.3 | 0.00 | 0.53 | 0.00 | 84 | 1009.2 |
| 20260509062854 | 11 | 346 | 4.8 | 12.9 | 0.00 | 0.53 | 0.00 | 84 | 1009.2 |
| 20260509062347 | 11 | 349 | 8.0 | 11.3 | 0.00 | 0.53 | 0.00 | 84 | 1009.1 |
| 20260509060420 | 10 | 350 | 9.7 | 12.9 | 0.00 | 0.53 | 0.00 | 86 | 1009.1 |
| 20260509055420 | 11 | 340 | 3.2 | 9.7 | 0.00 | 0.53 | 0.00 | 85 | 1009.0 |
| 20260509054420 | 11 | 356 | 3.2 | 6.4 | 0.00 | 0.53 | 0.00 | 86 | 1009.0 |
| 20260509053420 | 11 | 343 | 1.6 | 9.7 | 0.00 | 0.53 | 0.00 | 86 | 1008.6 |
| 20260509052853 | 11 | 344 | 3.2 | 6.4 | 0.00 | 0.53 | 0.00 | 85 | 1008.8 |
| 20260509051420 | 11 | 340 | 6.4 | 9.7 | 0.00 | 0.58 | 0.00 | 84 | 1008.6 |
| 20260509050434 | 11 | 353 | 4.8 | 6.4 | 0.00 | 0.58 | 0.00 | 85 | 1008.8 |
| 20260509045913 | 12 | 331 | 1.6 | 6.4 | 0.00 | 0.71 | 0.00 | 81 | 1008.6 |
| 20260509044420 | 12 | 349 | 3.2 | 11.3 | 0.00 | 0.76 | 0.00 | 82 | 1008.4 |
| 20260509043420 | 11 | 346 | 4.8 | 9.7 | 0.00 | 0.76 | 0.00 | 83 | 1008.6 |
| 20260509042420 | 11 | 353 | 0.0 | 6.4 | 0.00 | 0.76 | 0.00 | 85 | 1008.6 |
| 20260509041429 | 11 | 338 | 3.2 | 11.3 | 0.00 | 0.76 | 0.00 | 84 | 1008.6 |
| 20260509040419 | 11 | 346 | 6.4 | 9.7 | 0.00 | 0.79 | 0.00 | 83 | 1008.5 |
| 20260509035420 | 11 | 335 | 8.0 | 9.7 | 0.00 | 0.79 | 0.00 | 84 | 1008.4 |
| 20260509034420 | 11 | 348 | 3.2 | 6.4 | 0.00 | 0.89 | 0.00 | 85 | 1008.9 |
| 20260509033430 | 11 | 338 | 1.6 | 4.8 | 0.00 | 1.02 | 0.00 | 84 | 1008.8 |
| 20260509032902 | 11 | 343 | 1.6 | 6.4 | 0.00 | 1.19 | 0.00 | 83 | 1008.4 |
| 20260509031422 | 12 | 357 | 4.8 | 11.3 | 0.00 | 1.19 | 0.00 | 82 | 1008.9 |
| 20260509030420 | 11 | 357 | 6.4 | 6.4 | 0.00 | 1.22 | 0.00 | 83 | 1008.6 |
| 20260509025420 | 11 | 280 | 0.0 | 6.4 | 0.00 | 1.24 | 0.00 | 81 | 1008.5 |
| 20260509024419 | 12 | 344 | 1.6 | 6.4 | 0.00 | 1.27 | 0.00 | 79 | 1008.5 |
| 20260509023420 | 11 | 350 | 6.4 | 6.4 | 0.00 | 1.27 | 0.00 | 79 | 1009.0 |
| 20260509022855 | 11 | 344 | 3.2 | 9.7 | 0.00 | 1.30 | 0.00 | 79 | 1008.9 |
| 20260509021421 | 11 | 338 | 1.6 | 9.7 | 0.00 | 1.55 | 0.00 | 78 | 1008.6 |
| 20260509020420 | 11 | 325 | 3.2 | 6.4 | 0.00 | 1.78 | 0.00 | 79 | 1008.6 |
| 20260509015424 | 12 | 344 | 4.8 | 6.4 | 0.00 | 1.85 | 0.00 | 78 | 1009.0 |
| 20260509014419 | 12 | 340 | 3.2 | 4.8 | 0.00 | 1.91 | 0.00 | 78 | 1008.9 |
| 20260509013900 | 12 | 327 | 3.2 | 9.7 | 0.00 | 2.01 | 0.00 | 80 | 1008.9 |
| 20260509012430 | 12 | 199 | 0.0 | 6.4 | 0.00 | 2.11 | 0.00 | 76 | 1008.8 |
| 20260509011420 | 12 | 310 | 1.6 | 4.8 | 0.00 | 2.16 | 0.00 | 76 | 1008.9 |
| 20260509010420 | 12 | 245 | 0.0 | 6.4 | 0.00 | 2.18 | 0.00 | 79 | 1008.8 |
| 20260509005420 | 12 | 146 | 0.0 | 6.4 | 0.00 | 2.18 | 0.00 | 79 | 1008.8 |
| 20260509004859 | 12 | 332 | 1.6 | 6.4 | 0.00 | 2.21 | 0.00 | 79 | 1008.8 |
| 20260509003420 | 12 | 240 | 0.0 | 4.8 | 0.00 | 2.21 | 0.00 | 77 | 1009.0 |
| 20260509002421 | 12 | 23 | 0.0 | 3.2 | 0.00 | 2.24 | 0.00 | 75 | 1009.0 |
| 20260509002348 | 13 | 288 | 0.0 | 6.4 | 0.00 | 2.29 | 0.00 | 73 | 1008.8 |
| 20260509000856 | 13 | 319 | 3.2 | 9.7 | 0.00 | 2.29 | 0.00 | 71 | 1008.8 |
| 20260508235420 | 12 | 302 | 0.0 | 4.8 | 0.00 | 2.29 | 0.00 | 73 | 1009.0 |
| 20260508234418 | 13 | 201 | 0.0 | 11.3 | 0.00 | 2.29 | 0.00 | 71 | 1008.9 |
| 20260508233420 | 13 | 12 | 6.4 | 12.9 | 0.00 | 2.31 | 0.00 | 71 | 1009.0 |
| 20260508232421 | 13 | 296 | 6.4 | 12.9 | 0.00 | 2.41 | 0.00 | 70 | 1008.9 |
| 20260508231432 | 13 | 323 | 3.2 | 14.5 | 0.00 | 2.54 | 0.00 | 71 | 1009.0 |
| 20260508230420 | 13 | 258 | 1.6 | 16.1 | 0.00 | 2.54 | 0.00 | 71 | 1009.1 |
| 20260508225421 | 13 | 318 | 1.6 | 27.4 | 0.00 | 2.54 | 2.54 | 71 | 1009.0 |
| 20260508224420 | 13 | 346 | 4.8 | 16.1 | 0.00 | 2.54 | 2.54 | 71 | 1008.5 |
| 20260508223421 | 13 | 338 | 12.9 | 17.7 | 0.00 | 2.54 | 2.54 | 72 | 1008.5 |
| 20260508222420 | 13 | 3 | 14.5 | 22.5 | 0.00 | 2.54 | 2.54 | 71 | 1008.2 |
| 20260508221421 | 13 | 116 | 3.2 | 6.4 | 0.00 | 2.54 | 2.54 | 74 | 1008.2 |
| 20260508220421 | 13 | 318 | 1.6 | 11.3 | 0.00 | 2.54 | 2.54 | 73 | 1008.3 |
| 20260508215420 | 13 | 217 | 3.2 | 11.3 | 0.00 | 2.54 | 2.54 | 71 | 1008.2 |
| 20260508214419 | 13 | 116 | 3.2 | 11.3 | 0.00 | 2.54 | 2.54 | 72 | 1008.3 |
| 20260508213420 | 13 | 355 | 1.6 | 9.7 | 0.00 | 2.54 | 2.54 | 72 | 1008.1 |
| 20260508212421 | 13 | 78 | 4.8 | 16.1 | 0.00 | 2.54 | 2.54 | 69 | 1007.9 |
| 20260508211421 | 13 | 228 | 0.0 | 12.9 | 0.00 | 2.54 | 2.54 | 76 | 1007.8 |
| 20260508210420 | 13 | 308 | 1.6 | 6.4 | 0.00 | 2.54 | 2.54 | 75 | 1007.6 |
| 20260508205419 | 13 | 337 | 3.2 | 12.9 | 0.00 | 2.54 | 2.54 | 75 | 1007.2 |
| 20260508204420 | 13 | 223 | 0.0 | 9.7 | 0.00 | 2.54 | 2.54 | 77 | 1007.0 |
| 20260508203420 | 13 | 308 | 0.0 | 6.4 | 0.00 | 2.54 | 2.54 | 79 | 1006.8 |
| 20260508202418 | 12 | 332 | 1.6 | 11.3 | 0.00 | 2.54 | 2.54 | 80 | 1006.9 |
| 20260508201419 | 13 | 14 | 6.4 | 14.5 | 0.00 | 2.54 | 2.54 | 79 | 1006.9 |
| 20260508200907 | 13 | 341 | 4.8 | 9.7 | 0.00 | 2.54 | 2.54 | 79 | 1006.8 |
| 20260508195420 | 13 | 4 | 3.2 | 17.7 | 0.00 | 2.54 | 2.54 | 79 | 1006.3 |
| 20260508194912 | 13 | 350 | 4.8 | 11.3 | 0.00 | 2.54 | 2.54 | 80 | 1006.4 |
| 20260508193421 | 13 | 333 | 12.9 | 16.1 | 0.00 | 2.54 | 2.54 | 80 | 1006.3 |
| 20260508192420 | 13 | 347 | 6.4 | 17.7 | 0.03 | 2.54 | 2.54 | 81 | 1006.3 |
| 20260508191859 | 12 | 310 | 3.2 | 17.7 | 0.10 | 2.54 | 2.54 | 81 | 1006.3 |